Regional Weather Roundup
Issued by NWS

Home | Current Version | Previous Version | Graphics & Text | Print | Product List | Glossary Off
Versions: 1 2 3 4 5 6 7 8 9 10 11 12 13 14 15 16 17 18 19 20 21 22 23 24 25 26 27 28 29 30 31 32 33 34 35 36 37 38 39 40 41 42 43 44 45 46 47 48 49 50

000
ASUS43 KMPX 081101
RWRMN
WEATHER ROUNDUP FOR MINNESOTA
NATIONAL WEATHER SERVICE TWIN CITIES/CHANHASSEN MN
500 AM CST THU DEC 08 2016


NOTE: "FAIR" INDICATES FEW OR NO CLOUDS BELOW 12,000 FEET WITH NO
SIGNIFICANT WEATHER AND/OR OBSTRUCTIONS TO VISIBILITY. N/A MEANS
CURRENT SKY AND/OR WEATHER CONDITIONS ARE NOT AVAILABLE.

MNZ060>063-068>070-081200-
   Twin Cities Metro

CITY           SKY/WX    TMP DP  RH WIND       PRES   REMARKS
TWIN CITIES    MOCLDY    17  11  77 W14       30.20R WCI   3
ST PAUL        CLOUDY    18  32 100 W12       30.21R WCI   5
CRYSTAL        MOCLDY    17  10  74 W12       30.19R WCI   4
BLAINE         CLEAR     19  16  86 W13       30.18R WCI   7
LAKEVILLE      LGT SNOW  12  10  92 W14G21    30.20R WCI  -3
EDEN PRAIRIE   MOCLDY    16  10  77 W13G23    30.21R WCI   2
SOUTH ST PAUL  CLOUDY    18  13  79 W10G18    30.20R WCI   6
LAKE ELMO      FAIR      19  14  79 W13G18    30.18R WCI   7
$$
MNZ001>005-007-008-013>017-022>024-027-028-081200-
   Northwest Minnesota

CITY           SKY/WX    TMP DP  RH WIND       PRES   REMARKS
BEMIDJI        LGT SNOW  17  14  88 NW15      30.21R WCI   2
HALLOCK          N/A     16  14  93 NW22      30.35R WCI  -2
ROSEAU         FLURRIES  18  12  79 NW10      30.27R WCI   6
WARROAD        LGT SNOW  18  12  79 NW13      30.25R WCI   4
THIEF RVR FALL LGT SNOW  16  13  88 NW24      30.31R FOG     WCI  -2
CROOKSTON      LGT SNOW  16  14  93 N24       30.35S WCI  -3
FOSSTON        FLURRIES  16  12  86 NW18G24   30.27R WCI  -1
DETROIT LAKES  LGT SNOW  18  14  86 NW23G31   30.28R WCI   0
MOORHEAD       MIX PCPN  16  12  86 NW21      30.36R WCI  -2
PARK RAPIDS    LGT SNOW  18  11  74 NW16      30.21R WCI   3
$$
MNZ006-009>011-018-025>026-081200-
   North Central Minnesota

CITY           SKY/WX    TMP DP  RH WIND       PRES   REMARKS
BAUDETTE       LGT SNOW  20  17  88 N9        30.19R FOG     WCI   9
FLAG ISLAND    CLOUDY    19  18  93 NW20      30.23R WCI   4
INTL FALLS     LGT SNOW  19  15  84 NW10      30.14R FOG     WCI   7
WASKISH        FLURRIES  18  16  93 NW12G18   30.20R WCI   5
BIG FORK       LGT SNOW  19  16  86 NW6       30.14R WCI  11
LONGVILLE      FLURRIES  19  16  86 NW10G18   30.17R WCI   8
GRAND RAPIDS   LGT SNOW  19  15  84 NW16      30.15R FOG     WCI   4
CRANE LAKE     CLOUDY    19  18  93 NW7       30.12R WCI  10
ORR            LGT SNOW  19  16  86 NW10      30.07R WCI   8
COOK           FLURRIES  18  16  93 W6        30.10R WCI   9
$$
MNZ012-019>021-037-081200-
   Northeast Minnesota

CITY           SKY/WX    TMP DP  RH WIND       PRES   REMARKS
DULUTH         FLURRIES  21  17  84 NW13      30.05R WCI   9
ELY            FLURRIES  19  16  86 NW10      30.04R WCI   8
HIBBING        FLURRIES  18  14  84 NW18      30.09R WCI   2
EVELETH        FLURRIES  20  15  82 NW10      30.08  WCI   9
DULUTH HARBOR  CLOUDY    27  19  74 NW18G24   30.10R WCI  13
TWO HARBORS    PTCLDY    25  18  74 NW6       30.03R WCI  18
SILVER BAY     CLOUDY    23  18  80 NW9       30.02R WCI  13
GRAND MARAIS     N/A     25  17  72 VRB3      30.00R
G MARAIS ARPRT LGT SNOW  18  12  79 NW12G21   29.91R WCI   5
$$
MNZ029>031-032-039>041-046>048-054>057-064-081200-
   West Central Minnesota

CITY           SKY/WX    TMP DP  RH WIND       PRES   REMARKS
FERGUS FALLS   LGT SNOW  16  12  86 NW24G31   30.36R WCI  -3
WHEATON        FLURRIES  14  10  85 NW22G29   30.39R WCI  -4
MORRIS         LGT SNOW  16  10  79 NW26G36   30.31R WCI  -3
ALEXANDRIA     CLOUDY    16  12  84 NW18G26   30.25R WCI   0
ELBOW LAKE     LGT SNOW  13  10  91 NW20      30.31R WCI  -5
WADENA         LGT SNOW  18  12  79 NW22G28   30.22R WCI   0
GLENWOOD       LGT SNOW  14  12  92 W18       30.26R WCI  -3
APPLETON       CLOUDY    16  10  79 NW20G28   30.34R WCI  -1
BENSON         FLURRIES  16  10  79 N23G32    30.31R WCI  -2
ORTONVILLE     CLOUDY    12   7  79 NW18G30   30.36R WCI  -5
MADISON        FLURRIES  18  10  73 NW21      30.37R WCI   1
WILLMAR        FLURRIES  18  12  79 NW24G33   30.29R WCI   0
$$
MNZ033>034-036-042>043-049>051-058-059-081200-
   Central Minnesota

CITY           SKY/WX    TMP DP  RH WIND       PRES   REMARKS
ST CLOUD       MOCLDY    17  13  84 NW13      30.20R WCI   4
PAYNESVILLE    FLURRIES  16  15  94 W15G22    30.24R WCI   1
AITKIN         FLURRIES  21  16  79 NW5       30.14R WCI  15
PINE RIVER     CLOUDY    18  12  79 NW8G16    30.22R WCI   7
BRAINERD       CLOUDY    18  13  80 NW15      30.19R WCI   4
STAPLES        MOCLDY    18  12  79 NW16      30.21R WCI   3
LONG PRAIRIE   FLURRIES  19  14  79 W14G20    30.23R WCI   6
LITTLE FALLS   CLOUDY    19  14  79 NW10G17   30.21R WCI   8
LITCHFIELD     CLOUDY    18  12  79 NW17G25   30.25R WCI   2
BUFFALO        CLEAR     17  13  84 W10       30.23R WCI   4
MAPLE LAKE     PTCLDY    18  15  88 W14G20    30.22R WCI   4
HUTCHINSON     FLURRIES  16  12  84 W16G26    30.25R WCI   1
$$
MNZ037-044-045-052-053-081200-
   East Central Minnesota

CITY           SKY/WX    TMP DP  RH WIND       PRES   REMARKS
PRINCETON      CLEAR     18  16  93 W9        30.18R WCI   6
MORA           LGT SNOW  21  18  86 W9        30.16R WCI  11
CAMBRIDGE      FLURRIES  19  12  73 W8        30.15R WCI   9
RUSH CITY      CLOUDY    19  16  86 W8        30.15R WCI   9
MOOSE LAKE     FLURRIES  23  18  80 NW9G16    30.10R WCI  13
HINCKLEY       FLURRIES  23  19  86 CALM      30.13R
CLOQUET        CLOUDY    21  16  79 NW12G17   30.08R WCI   9
MCGREGOR       CLOUDY    21  18  86 NW10G18   30.14R WCI  10
$$
MNZ071>073-080-081-089-090-097-098-081200-
   Southwest Minnesota

CITY           SKY/WX    TMP DP  RH WIND       PRES   REMARKS
MONTEVIDEO     LGT SNOW  16  10  79 N16G22    30.35R WCI   0
GRANITE FALLS  LGT SNOW  18  13  82 W22G33    30.35S WCI   0
CANBY          FLURRIES  13   8  77 NW18G25   30.38R WCI  -4
MARSHALL       FLURRIES  13   7  77 NW23G33   30.34R WCI  -6
REDWOOD FALLS  FLURRIES  16   9  74 NW16G28   30.31R WCI   1
OLIVIA         LGT SNOW  18  14  86 NW21G28   30.29R WCI   1
PIPESTONE      CLEAR      9   5  85 NW17G26   30.35S WCI -10
WINDOM         LGT SNOW  12   9  85 W26       30.31R WCI  -8
WORTHINGTON    LGT SNOW   9   5  84 W21G26    30.34R FOG     WCI -11
JACKSON        FLURRIES  10   5  79 W18G26    30.32R WCI  -8
TRACY          CLOUDY    14   9  81 NW21G26   30.34R WCI  -4
SLAYTON        LGT SNOW  10   6  84 W22       30.33R WCI -10
$$
MNZ065>067-074>077-082>085-091>093-081200-
   South Central Minnesota

CITY           SKY/WX    TMP DP  RH WIND       PRES   REMARKS
MANKATO        FLURRIES  14  10  84 NW21      30.26R WCI  -4
NEW ULM        LGT SNOW  14  10  85 NW18      30.29R WCI  -3
ST JAMES       FLURRIES  14   9  79 W25       30.31R WCI  -5
FAIRMONT       FLURRIES  13   8  81 NW21G32   30.31R WCI  -5
GLENCOE        CLOUDY    17  14  89 W20G25    30.24R FOG     WCI   0
OWATONNA       LGT SNOW  16  10  79 W18       30.22R WCI  -1
WASECA         LGT SNOW  14  10  85 W17G25    30.25R WCI  -3
ALBERT LEA     FLURRIES  16  12  86 W17G25    30.23S WCI   0
$$
MNZ078>079-086>088-094>096-081200-
   Southeast Minnesota

CITY           SKY/WX    TMP DP  RH WIND       PRES   REMARKS
ROCHESTER      LGT SNOW  13   9  84 W21       30.18R FOG     WCI  -5
RED WING       FLURRIES  18  10  73 W15G23    30.18S WCI   3
STANTON        CLEAR     16  11  81 W16       30.20R WCI   0
DODGE CENTER   FLURRIES  12   9  85 W21G29    30.18R WCI  -6
WINONA         FLURRIES  19  12  73 W10G17    30.20R WCI   8
AUSTIN         FLURRIES  12   9  85 W16G28    30.22R WCI  -4
PRESTON        LGT SNOW  12   8  82 W18       30.19R WCI  -5
$$
ABBREVIATIONS USED IN REMARKS
   TC - TEMPERATURES IN CELSIUS
  WCI - WIND CHILL INDEX
   HX - HEAT INDEX
  VSB - VISIBILITY
$$




USA.gov is the U.S. government's official web portal to all federal, state and local government web resources and services.